Current Version              Previous Version:    01  02  03  04  05  06  07  08  09  10  11  12  13  14  15  16  17  18  19  20  21  22  23  24  25  26  27  28  29  30  
   31  32  33  34  35  36  37  38  39  40  41  42  43  44  45  46  47  48  49  50  51  52  53  54  55  56  57  58  59  60  

[Printable]
354
ASUS44 KFWD 252001
RWRTX
NORTH TEXAS HOURLY WEATHER ROUNDUP
NATIONAL WEATHER SERVICE FORT WORTH TX
200 PM CST SUN JAN 25 2015

NOTE: "FAIR" INDICATES FEW OR NO CLOUDS BELOW 12,000 FEET WITH NO
SIGNIFICANT WEATHER AND/OR OBSTRUCTIONS TO VISIBILITY.

TXZ118-119-252100-
DALLAS/FORT WORTH METROPLEX

CITY           SKY/WX    TMP DP  RH WIND       PRES   REMARKS
DFW AIRPORT    MOSUNNY   64  25  22 NW29G37   30.02R
DALLAS LOVE    MOSUNNY   64  26  23 NW23G31   30.02R
FTW MEACHAM    SUNNY     63  26  24 NW22G35   30.04R
DAL-EXECUTIVE  SUNNY     67  23  19 NW26      30.01R
FTW-ALLIANCE   MOSUNNY   63  26  24 NW25G33   30.04R
FTW-SPINKS     SUNNY    N/A N/A N/A NW23G36   30.07R
ARLINGTON      SUNNY     67  22  18 NW22G28   30.03R
ADDISON        SUNNY     63  25  23 NW17G32   30.02F
LANCASTER      SUNNY     63  24  22 NW23G31   30.02R
$$

TXZ091>094-102>105-117-120-121-131>134-252100-
NORTH CENTRAL TEXAS

CITY           SKY/WX    TMP DP  RH WIND       PRES   REMARKS
SHRMAN/DENISON SUNNY     61  33  35 NW21G32   30.01F
BRIDGEPORT     SUNNY     61  32  34 NW15G26   30.09S
DENTON         SUNNY     61  26  26 NW23G36   30.03S
MCKINNEY       SUNNY     62  28  27 NW22G32   30.01
ROCKWALL       SUNNY     62  30  30 NW17G35   29.99S
TERRELL        SUNNY     65  28  24 NW17G26   30.00R
WAXAHACHIE     SUNNY     65  29  25 NW22G28   30.03S
$$

TXZ083>090-098>101-113>116-127>130-139>142-154-155-252100-
WESTERN NORTH TEXAS

CITY           SKY/WX    TMP DP  RH WIND       PRES   REMARKS
WICHITA FALLS  SUNNY     62  26  25 N25G31    30.08S
WF-KICKAPOO    SUNNY     54  16  22 NW22G33   30.10R
ABILENE        SUNNY     62  28  27 N18       30.17S
ABILENE-DYESS  SUNNY     60  29  30 N20G25    30.16F
MINERAL WELLS  SUNNY     64  24  21 NW20G31   30.07S
STEPHENVILLE   SUNNY     65  20  18 N23G29    30.12S
COMANCHE       SUNNY     63  29  27 N17G33    30.13S
BROWNWOOD      SUNNY     64  25  22 N21G29    30.14F
$$

TXZ143>147-156>162-174-175-252100-
CENTRAL TEXAS

CITY           SKY/WX    TMP DP  RH WIND       PRES   REMARKS
WACO           SUNNY     67  31  26 N13       30.06S
WACO-TSTC      SUNNY     68  30  24 NW18      30.05S
WACO-MCGREGOR  SUNNY     66  37  34 NW16G23   30.08S
CORSICANA      SUNNY     67  31  26 NW20G26   30.03R
HEARNE         SUNNY     65  41  41 W9        30.07F
TEMPLE         SUNNY     70  30  23 NW13G22   30.06F
KILLEEN        SUNNY     68  26  20 NW20      30.09F
KILLEEN-SKYLRK SUNNY     68  28  22 NW14G23   30.07R
FORT HOOD      SUNNY     68  24  19 MISG      30.08F
HAMILTON       SUNNY     66  23  19 N28       30.10F
LAMPASAS       SUNNY     68  28  22 N10G20    30.10F
$$

TXZ095>097-106>112-122>126-135>138-148>153-164>167-252100-
EAST TEXAS

CITY           SKY/WX    TMP DP  RH WIND       PRES   REMARKS
PARIS          SUNNY     61  30  31 NW20G38   29.94S
MINEOLA        SUNNY     64  28  25 NW13G20   29.96F
TYLER          SUNNY     65  31  28 NW20G28   29.95F
LONGVIEW       SUNNY     65  31  28 W21G36    29.90F
PALESTINE      SUNNY     66  33  29 W18G24    30.00S
JACKSONVILLE   SUNNY     66  28  24 W18G26    29.97R
NACOGDOCHES    SUNNY     66  37  34 NW16G23   29.95R
LUFKIN         SUNNY     70  41  34 W13       29.96S
$$

SUPPLEMENTAL OBSERVATIONS (CENTRAL)

CITY           SKY/WX    TMP DP  RH WIND       PRES   REMARKS
$$

SUPPLEMENTAL OBSERVATIONS (WEST)

CITY           SKY/WX    TMP DP  RH WIND       PRES   REMARKS
$$

SUPPLEMENTAL OBSERVATIONS (EAST)

CITY           SKY/WX    TMP DP  RH WIND       PRES   REMARKS
$$

SUPPLEMENTAL OBSERVATIONS ARE A COLLECTION OF AUTOMATED INSTRUMENTS
THAT ARE MAINTAINED BY A VARIETY OF FEDERAL AND STATE AGENCIES.
CERTAIN ELEMENTS...SUCH AS HUMIDITY VALUES AND SUSTAINED WIND
SPEEDS...MAY BE APPROXIMATED.